Dean International
Flight School

Career Spotlight

Mika

Mika

Congratulations to Mika from Khazakstan. She recently sent us this photo of her flying an Airbus airliner.

More...
Mika's Success Story
close

Congratulations to Mika from Khazakstan. She recently sent us this photo of her flying an Airbus airliner.

Mario

Mario

My dreams could not have been realized if I wouldn't have been part of the Dean International family.

More...
Mario's Success Story
close

"My dreams could not have been realized if I wouldn't have been part of the Dean International family. Thank you Robert, thanks to all my co-workers, and thanks to all of my students!"

Fernando

Fernando

I am now working as a First Officer at TACA and am enjoying every moment of it.

More...
Fernando's Success Story
close

"Will never forget my time of flight training at Dean International. I am now working as a First Officer at TACA and am enjoying every moment of it."

Alvaro

Alvaro

Because of the flight time I was able to built while instructing, I got the experience needed to apply to an airline in Colombia.

More...
Alvaro's Success Story
close

Dean alumnus Alvaro Londoño currently flies with Tampa Cargo. He says of his experience at Dean: "I want to take this opportunity to thank you for giving me the chance to build my experience and expand my knowledge in Dean International. Because of the flight time I was able to built flight instructing, I got the experience needed to apply to an airline in Colombia."

Ralph

Ralph

Every Aruban student of Dean International has made it into Tiara Air Aruba, that is very nice.

More...
Ralph's Success Story
close

"Next to me is my Co-Pilot, Elison. This picture was taken on our first flight together, which was almost exactly 5 years after I finished at Dean International. [...] Every Aruban student of Dean International has made it into Tiara Air Aruba. [...] The future looks bright here in Aruba."

Rohaan

Rohaan

The [..] staff will all work diligently to help you finish your certificates as safely and efficiently as possible.

More...
Rohaan's Success Story
close

After receiving very hard times from other flight schools [...], I came to Dean International where Robert Dean personally sat down with me and gave me a financial and chronological look into how much remained to finish my private pilot certificate. Through his hard efforts as an instructor and mentor, I was able to finish my private pilot certificate within one week.

Welcome to Dean International

In over two decades, Dean International has educated over 7,000 pilots from all over the world, including over 1,000 students from India alone. By offering a great training experience, a friendly service staff, an ample variety of aircraft, and by improving constantly, we have become one of the largest, most prestigious FAA 141-approved flight schools in North America. Located in Miami, Florida, USA, our flight school offers an ideal location for year-round, "learn to fly" weather, flight training. Dean International is not only well-equipped to provide services to professional trainees but also caters to General Aviation renters. Visit or contact our headquarters at Kendall-Tamiami Executive Airport located in Miami, FL today to learn more about us, or simply read more about our programs if you are an international student interested in joining our school.

Local Airport Information
TAF FOR KTMB (Issued: Fri, October 24th 2014 12:48 PM UTC)
TAF KTMB 241145Z 2412/2512 03010KT P6SM SHRA BKN015
      FM242200 02010KT P6SM VCSH SCT025 BKN035 OVC120
      FM250100 35010KT P6SM SCT030 BKN080
     
METAR FOR KTMB (Issued: Fri, October 24th 2014 12:04 PM UTC):
KTMB 241204Z 04010KT 10SM SCT020 BKN030 OVC100 24/22 A2984 RMK AO2 T02440222

This weather information is provided by the National Weather Service.
It is automatically refreshed every three minutes.
TAF FOR KHST (Issued: Fri, October 24th 2014 10:50 AM UTC)
TAF
      AMD KHST 2410/2514 05012G18KT 8000 SHRA SCT009 BKN015 QNH2980INS
      BECMG 2414/2415 06015G25KT 9999 NSW SCT010 BKN020 QNH2978INS
      BECMG 2421/2422 01010KT 9999 SCT030 BKN150 QNH2981INS TX28/2420Z TN22/2411Z
      AMD 241029
     
METAR FOR KHST (Issued: Fri, October 24th 2014 12:33 PM UTC):
KHST 241233Z AUTO 01013G20KT 4SM +RA BR FEW008 OVC014 24/23 A2984 RMK AO2 CIG 014V018

This weather information is provided by the National Weather Service.
It is automatically refreshed every three minutes.
TAF FOR KOPF (Issued: Fri, October 24th 2014 12:48 PM UTC)
TAF KOPF 241145Z 2412/2512 06012G22KT P6SM SHRA BKN035
      FM242100 02015G25KT P6SM VCSH SCT025 BKN035 OVC120
      FM250100 01012G22KT P6SM SCT030 BKN080
     
METAR FOR KOPF (Issued: Fri, October 24th 2014 11:53 AM UTC):
KOPF 241153Z 04006KT 10SM -RA FEW023 BKN060 OVC100 24/22 A2985 RMK AO2 SLP110 P0000 60015 70055 T02390222 10261 20233 53005

This weather information is provided by the National Weather Service.
It is automatically refreshed every three minutes.
TAF FOR KMIA (Issued: Fri, October 24th 2014 12:51 PM UTC)
TAF KMIA 241145Z 2412/2512 04010G20KT P6SM SHRA BKN020
      TEMPO 2412/2414 SHRA BKN008
      FM242200 02010KT P6SM VCSH SCT025 BKN035 OVC120
      FM250100 35010KT P6SM SCT030 BKN080
     
METAR FOR KMIA (Issued: Fri, October 24th 2014 12:14 PM UTC):
KMIA 241214Z 04010G16KT 6SM -RA BR FEW011 BKN024 OVC030 24/22 A2985 RMK AO2 RAB09 P0000 T02390222

This weather information is provided by the National Weather Service.
It is automatically refreshed every three minutes.
Design by Ariel Llizo
© Dean International Inc. 2012